GALAXY 33 (G-33)

Last updated on Sun Apr 12 2026 00:02:56 GMT+0000 (Coordinated Universal Time)

1 54026U 22128A 26101.49434395 .00000080 00000+0 00000+0 0 9999 2 54026 0.0318 66.0766 0001859 317.2252 221.3849 1.00272378 13077
UTC large
Height (km)
Speed (km/s)
/
Latitude / Longitude
Inclination (degrees)
Orbital Period (minutes)
Azimuth
Elevation
Range (km)
Doppler Factor

Next 0 passes for location: London (51.5072 / 0.1276)

Sorry there are no passes over London.
GALAXY 33 (G-33)